www.pogodaiklimat.ru

Погода и климат >> Архив погоды >> Монголия >> Матад


ПОГОДА в Матаде

  • Прогноз погоды в Матаде
  • Монитор погоды в Матаде

АРХИВ ПОГОДЫ в Матаде

Время (UTC), дата Ветер
(напр.,м/с)
 
Видим.   Явления Облачность Т
(С)
Тd
(С)
f
(%)
Тe
(С)
Тes
(С)
Комфортность P
(гПа)
Po
(гПа)
Тmin
(С)
Tmax
(С)
R
(мм)
R24
(мм)
S
(см)
21 15.08 СЗ 5 20 км 10/10 1000 м
[Sc]
+11.6 +11.4 99 +9 +9 1007.0 903.2
00 16.08 С 8 20 км 10/10 1000 м
[Sc]
+12.0 +9.6 85 +9 +9 1007.1 903.4 +11.3
03 16.08 С 8 20 км 9/1 1000 м
[Cu hum Ac und]
+16.2 +11.8 75 +15 +15 1005.3 903.2
06 16.08 С 10 20 км 10/6 600 м
[Cb calv Ac cuf Ci]
+17.7 +11.0 65 +16 +17 1004.1 902.6
09 16.08 С 8 20 км в посл. час ливневой дождь 9/6 600 м
[Cb calv Ac As]
+16.7 +13.2 80 +15 +15 1004.6 902.8
12 16.08 СЗ 4
{13}
20 км {ливн. осадки} 8/4 600 м
[Cb calv Ac und]
+13.6 +12.8 95 +12 +12 1006.7 903.6 +19.3 0.2
15 16.08 С 8 20 км 4/0
[Ac lent]
+12.9 +11.3 90 +10 +10 1007.0 903.6
18 16.08 С 7 20 км ясно +10.6 +10.6 100 +7 +7 1007.7 903.4
21 16.08 С 7 20 км 4/0
[Ac trans]
+9.3 +9.0 98 +5 +5 1009.0 904.1
00 17.08 С 7 20 км 4/0
[Ac lent]
+13.1 +9.5 79 +11 +11 1008.5 905.0 +9.0
03 17.08 С 8 20 км 8/6 1000 м
[Sc Ac cuf]
+17.9 +9.5 58 +17 +18 1006.4 904.7
06 17.08 С 9 20 км 8/8 1000 м
[Cu med, cong]
+20.6 +8.6 46 +21 +22 комфорт 1004.0 903.5
09 17.08 С 5 20 км 9/6 1000 м
[Cu med, cong Ac cuf]
+20.1 +9.7 51 +21 +22 комфорт 1004.0 903.3
12 17.08 С 2
{10}
20 км 10/10 600 м
[Sc]
+14.0 +12.6 91 +13 +13 1007.0 904.0 +21.9
15 17.08 штиль 0 20 км 8/8 1000 м
[Cu Sc]
+11.7 +11.2 97 +11 +11 1008.3 904.4
18 17.08 СЗ 3 20 км 3/0
[Ac trans]
+11.5 +9.6 88 +10 +10 1007.9 903.9
21 17.08 СЗ 4 20 км 9/9 1000 м
[Sc]
+12.7 +9.3 80 +11 +11 1008.1 904.5
00 18.08 СЗ 3 20 км 8/0
[Ac und]
+18.3 +9.9 58 +19 +20 1007.1 905.5 +11.0
03 18.08 СЗ 4 20 км 8/4 1000 м
[Cu med, cong Ac cuf]
+22.2 +8.3 41 +23 +26 комфорт 1006.0 905.8
06 18.08 СЗ 4 20 км 9/6 600 м
[Cb calv Ac cast Ci fib]
+22.1 +7.5 39 +23 +25 комфорт 1005.3 905.1
09 18.08 ЮЗ 3 20 км 8/4 600 м
[Cb calv Ac cuf Cc]
+23.6 +6.8 34 +24 +25 комфорт 1004.5 904.9
12 18.08 штиль 0 20 км 8/6 1000 м
[Cu Sc Ac cast]
+18.7 +10.8 60 +19 +19 1007.4 905.9 +24.1
15 18.08 штиль 0 20 км 8/0
[Ac trans]
+15.7 +11.7 77 +16 +16 1010.2 907.4
18 18.08 С 1 20 км 6/0
[Ac As]
+12.2 +11.6 96 +12 +12 1011.6 907.5
21 18.08 С 2 20 км ясно +11.3 +10.4 94 +10 +10 1012.1 907.6
00 19.08 штиль 0 20 км ясно +19.0 +11.1 60 +20 +25 1010.2 908.5 +9.7
03 19.08 Ю 3 20 км 5/3 1000 м
[Cu med, cong Ci sp]
+22.5 +10.0 45 +24 +32 комфорт 1008.6 908.3
06 19.08 Ю 4 20 км 10/5 1000 м
[Cu med, cong Cs]
+24.1 +10.4 42 +25 +29 комфорт 1006.3 906.7
09 19.08 Ю 4 20 км 10/6 1000 м
[Cu med, cong Ac As]
+23.8 +10.1 42 +25 +25 комфорт 1004.7 905.1
12 19.08 СЗ 4
{10}
10 км слаб. дождь 10/10 600 м
[Sc]
+17.8 +14.3 80 +18 +18 1007.2 905.4 +24.9 0.0
15 19.08 З 3 н/о в посл. час дождь 10/10 600 м
[Sc]
+16.6 +16.0 96 +16 +16 1007.0 904.9
18 19.08 Ю 3 н/о {дождь} 10/10 600 м
[Sc]
+16.3 +15.8 97 +16 +16 1006.3 904.2
21 19.08 З 3 н/о слаб. дождь 10/10 600 м
[Sc]
+15.1 +15.1 100 +14 +14 1005.3 902.9
00 20.08 З 5 10 км дождь {ливн. осадки} 10/10 600 м
[Sc]
+14.3 +14.3 100 +12 +12 1005.0 902.3 +14.3 8
03 20.08 З 6 20 км {дождь} 10/10 600 м
[Sc]
+16.0 +14.4 90 +15 +15 1003.5 901.5
06 20.08 З 8 20 км {дождь} 8/8 600 м
[Cb calv]
+19.5 +10.8 57 +20 +20 1000.5 900.0
09 20.08 С 8 20 км слаб. ливневой дождь 9/6 600 м
[Cb calv Ac As]
+14.3 +14.3 100 +12 +12 1003.5 900.9
12 20.08 СЗ 7 20 км в посл. час ливневой дождь 9/6 600 м
[Cb calv Ac cuf]
+13.1 +13.1 100 +10 +10 1005.9 902.7 +19.8 5
15 20.08 СЗ 10 н/о в посл. час ливневой дождь 10/10 600 м
[Cb calv]
+12.9 +12.7 99 +9 +9 1007.0 903.6
18 20.08 СЗ 10 20 км {ливн. осадки} 8/5 600 м
[Cb calv Ac cuf]
+12.3 +9.8 85 +9 +9 1007.7 904.0
21 20.08 СЗ 11 20 км 8/4 600 м
[Cb calv Ac cast]
+11.0 +8.2 83 +7 +7 1009.8 905.4
00 21.08 СЗ 11 20 км 6/0
[Ac trans]
+12.8 +8.5 75 +9 +9 1009.8 906.0 +10.6 1
03 21.08 СЗ 12 20 км 4/4 1000 м
[Cu hum]
+16.9 +9.3 61 +15 +15 1008.1 905.9
06 21.08 СЗ 10 20 км 8/8 1000 м
[Cu med, cong]
+18.5 +9.0 54 +18 +18 1007.8 906.2
09 21.08 СЗ 9 20 км 9/9 1000 м
[Cu med, cong]
+18.5 +8.2 51 +18 +18 1008.3 906.6
12 21.08 СЗ 4
{13}
20 км 6/0
[Ac cast]
+15.1 +9.2 68 +14 +14 1011.0 907.9 +20.5
15 21.08 СЗ 6 20 км 3/0
[Ac trans]
+13.5 +9.0 74 +11 +11 1012.3 908.6
18 21.08 СЗ 7 20 км ясно +11.9 +8.4 79 +9 +9 1012.8 908.5
21 21.08 СЗ 6 20 км ясно +10.3 +7.9 85 +7 +7 1014.1 909.1
00 22.08 СЗ 10 20 км 3/1 1000 м
[Cu hum Ac cast]
+12.8 +9.1 78 +9 +10 1013.8 909.7 +9.6
03 22.08 СЗ 11 20 км 9/9 1000 м
[Cu med, cong]
+14.6 +10.2 75 +12 +12 1013.9 910.4
06 22.08 С 9 20 км 10/10 600 м
[Cb calv]
+16.5 +11.0 70 +15 +15 1013.2 910.4
09 22.08 С 7
{13}
20 км в посл. час ливневой дождь 9/9 600 м
[Cb cap]
+16.4 +12.2 76 +15 +15 1013.9 910.9
12 22.08 С 5 20 км {ливн. осадки} 10/4 1000 м
[Cu Sc Ac cuf]
+13.5 +12.9 96 +11 +11 1015.8 911.7 +18.1 0.0
15 22.08 СЗ 4 20 км 6/0
[Ac As]
+12.1 +12.1 100 +10 +10 1017.6 912.8
18 22.08 СЗ 3 20 км 10/0
[Ac As]
+13.3 +13.3 100 +12 +12 1017.4 913.1

 

Местоположение метеостанции Матад (Монголия): широта 47.17 долгота 115.63 высота над уровнем моря 907 м.

В архиве по умолчанию представлена погода в Матаде за последнюю неделю. Архивные данные за месяц целиком и за предыдущие месяцы, начиная с января 2011 года, Вы можете получить, выбрав интересующий диапазон дат из раскрывающегося списка и нажав кнопку "Ввод!".


*Определитесь, кто Вы:
робот инопланетянин человек

Внимание! Время в таблицах - всемирное. Для получения местного времени необходимо прибавить поправку, которая равна 8 ч.

Смотрите также архив погоды в соседних городах и на ближайших метеорологических станциях:

Погода в Чойбалсане (Монголия) (130 км)
Погода в Эрдэнэцагаане (Монголия) (143 км)
Погода в Баруун-Урте (Монголия) (187 км)
Погода в Шинэ-Барга-Юци (Внутренняя Монголия, Китай) (189 км)
Погода в Дун-Уджимчин-Ци (Внутренняя Монголия, Китай) (210 км)
Погода в Халхин-Голе (Монголия) (230 км)
Погода в Баян-Ову (Монголия) (273 км)
Погода в Дашбалбаре (Монголия) (280 км)
Погода в Баяндэлгэре (Монголия) (297 км)
Погода в Забайкальске (Забайкальский край, Россия) (300 км)

Пояснения к столбцам:

Ветер - указаны скорость ветра в м/с - средняя за 10 мин, порывы в срок и между сроками (в фигурных скобках) и направление, откуда дует ветер: С - северный, СВ - северо-восточный, В - восточный, ЮВ - юго-восточный, Ю - южный, ЮЗ - юго-западный, З - западный, СЗ - северо-западный.
Видимость - горизонтальная дальность видимости в метрах или километрах. При видимости от 1 до 10 км при отсутствии осадков обычно наблюдается дымка, при ухудшении видимости до 1 км и менее - туман. В сухую погоду видимость может ухудшаться дымом, пылью или мглою.
Явления - указаны атмосферные явления, наблюдавшиеся в срок или в последний час перед сроком; фигурными скобками обозначены явления, наблюдавшиеся между сроками (за 1-3 часа до срока); квадратными скобками обозначены град или гололедные отложения с указанием их диаметра в мм.
Облачность - указаны через наклонную черту общая и нижняя облачность в баллах и высота нижней границы облаков в метрах; квадратными скобками обозначены формы облаков: Ci - перистые, Cs - перисто-слоистые, Cc - перисто-кучевые, Ac - высококучевые, As - высокослоистые, Sc - слоисто-кучевые, Ns - слоисто-дождевые, Cu - кучевые, Cb - кучево-дождевые. Подробнее классификацию облаков см. в Атласе облаков (PDF).
T - Температура воздуха - температура, измеренная на высоте 2 м над землей.
Td - Температура точки росы - температура, при понижении до которой содержащийся в воздухе водяной пар достигнет насыщения.
f - Относительная влажность воздуха - влажноcть воздуха, измеренная на высоте 2 м над землей.
Te - Эффективная температура - температура, которую ощущает одетый по сезону человек в тени. Характеристика душности погоды. При расчете учитывается влияние влажности воздуха и скорости ветра на теплоощущения человека.
Tes - Эффективная температура на солнце - температура, которую ощущает человек, с поправкой на солнечный нагрев. Характеристика знойности погоды. Зависит от высоты солнца над горизонтом, облачности и скорости ветра. Ночью, в пасмурную погоду, а также при ветре 12 м/с и более поправка равна нулю.
P - Атмосферное давление - приведенное к уровню моря атмосферное давление.
Po - Атмосферное давление - измеренное на уровне метеостанции атмосферное давление.
Tmin - Минимальная температура - минимум температуры воздуха на высоте 2 м над землей.
Tmax - Максимальная температура - максимум температуры воздуха на высоте 2 м над землей.
R - Количество осадков - Количество выпавших осадков за период времени, мм. При наведении курсора мыши на число - период времени, за который выпало указанное количество осадков.
R24 - Количество осадков - Количество выпавших осадков за 24 часа, мм.
S - Снежный покров - Высота снежного покрова, см. При наведении курсора мыши на число - состояние снежного покрова и степень покрытия местности в баллах.